Torna al catalogo

SL-12 DEB

AttivoHEO
NORAD 39800·DEBRIS·🇷🇺 Russia

Lanciato Sep 25, 2008 da Baikonur Cosmodrome

Loading…

Prossimi Passaggi (prossime 24 ore)

TLE

AggiornatoSource: Space-Track

Epoca: Sep 14, 2026, 02:14 UTC

1 39800U 08046M   26257.09346087  .00000038  00000-0  40622-3 0  9995
2 39800  65.2236 329.5424 5680043 246.1331  46.0406  4.24167703190308

Traccia SL-12 DEB in tempo reale con AllMySat

Download on the App Store